(243512) = 2009 YF10

Discovered at Kitt Peak on 2009-12-17 by Spacewatch.

Orbit

Orbit type: Main Belt

Note: WebGL enabled browser required.

epoch2023-09-13.0
epoch JD2460200.5
perihelion date2021-03-05.06432
perihelion JD2459278.56432
argument of perihelion (°)353.13330
ascending node (°)187.48333
inclination (°)9.28820
eccentricity0.0780422
perihelion distance (AU)2.8509859
Tisserand w.r.t. Jupiter3.2
ΔV w.r.t. Earth (km/sec)10.9
semimajor axis (AU)3.0923170
mean anomaly (°)167.10077
mean daily motion (°/day)0.18124990
aphelion distance (AU)3.334
period (years)5.44
P-vector [x]-0.99973793
P-vector [y]-0.00362396
P-vector [z]-0.02260376
Q-vector [x]0.00906668
Q-vector [y]-0.96932874
Q-vector [z]-0.24560048
absolute magnitude15.67
phase slope0.15
uncertainty0
referenceMPEC 2023-Y111
observations used498
oppositions14
arc length (days)7344
first opposition used2003
last opposition used2023
residual rms (arc-secs)0.68
perturbers coarse indicatorM-v
perturbers precise indicator003Ek
first observation date used2003-11-21.0
last observation date used2023-12-30.0
computer nameMPCLINUX
JD of orbit computation2456639.558877
perihelion JD uncertainty (days)2.5245E-04
argument of perihelion uncertainty (°)5.1762E-05
ascending node uncertainty (°)3.2907E-05
inclination uncertainty (°)8.6514E-06
eccentricity uncertainty 8.5810E-08
perihelion distance uncertainty (AU)2.8703E-07
Minimum Orbit Intersection Distances (in AU)
for orbit epoch: 2460200.5, reference: E2023-YB1
Mercury2.44
Venus2.1331
Earth1.85265
Mars1.20229
Jupiter1.62292
Saturn5.92521
Uranus15.5969
Neptune26.5241

Observations

508 total observations over interval: 2003 11 21.48553 – 2023 12 30.234741
These data are available for download (format description).

Date (UT) J2000 RA J2000 Dec Magn Location Ref
2003 11 21.48553 08 17 37.54 +08 15 03.3 21.7 V 691 – Steward Observatory, Kitt Peak-Spacewatch MPS 332021
2003 11 21.50113 08 17 37.60 +08 14 59.3 20.8 V 691 – Steward Observatory, Kitt Peak-Spacewatch MPS 332021
2003 11 21.51668 08 17 37.84 +08 14 56.1 21.7 V 691 – Steward Observatory, Kitt Peak-Spacewatch MPS 332021
2005 03 14.44463 14 38 52.35 -11 14 11.1 20.3 R G96 – Mt. Lemmon Survey MPS 327488
2005 03 14.45127 14 38 52.34 -11 14 08.9 20.3 R G96 – Mt. Lemmon Survey MPS 327488
2005 03 14.45789 14 38 52.32 -11 14 07.3 20.4 R G96 – Mt. Lemmon Survey MPS 327488
2005 03 14.46448 14 38 52.27 -11 14 05.3 20.6 R G96 – Mt. Lemmon Survey MPS 327488
2005 04 18.31273 14 23 29.11 -07 41 18.0 20.1 V 691 – Steward Observatory, Kitt Peak-Spacewatch MPS 327488
2005 04 18.33394 14 23 28.19 -07 41 09.1 20.1 V 691 – Steward Observatory, Kitt Peak-Spacewatch MPS 327488
2005 04 18.35843 14 23 27.13 -07 40 59.3 20.2 V 691 – Steward Observatory, Kitt Peak-Spacewatch MPS 327488
2007 09 12.37751 00 56 05.13 +06 00 29.9 20.8 V G96 – Mt. Lemmon Survey MPS 327488
2007 09 12.38354 00 56 04.92 +06 00 28.0 20.7 V G96 – Mt. Lemmon Survey MPS 327488
2007 09 12.38955 00 56 04.74 +06 00 26.3 20.7 V G96 – Mt. Lemmon Survey MPS 327488
2007 09 12.39560 00 56 04.52 +06 00 23.9 20.7 V G96 – Mt. Lemmon Survey MPS 327488
2007 10 18.22773 00 32 45.67 +02 10 52.7 20.8 V G96 – Mt. Lemmon Survey MPS 327488
2007 10 18.23206 00 32 45.49 +02 10 51.0 20.6 V G96 – Mt. Lemmon Survey MPS 327488
2007 10 18.23641 00 32 45.34 +02 10 49.7 20.7 V G96 – Mt. Lemmon Survey MPS 327488
2007 10 18.24089 00 32 45.16 +02 10 47.6 20.6 V G96 – Mt. Lemmon Survey MPS 327488
2007 11 05.18109 00 23 27.70 +00 35 56.2 20.8 V G96 – Mt. Lemmon Survey MPS 327488
2007 11 05.18859 00 23 27.56 +00 35 54.2 20.9 V G96 – Mt. Lemmon Survey MPS 327488
2007 11 05.19609 00 23 27.38 +00 35 52.4 21.0 V G96 – Mt. Lemmon Survey MPS 327488
2007 11 05.20362 00 23 27.16 +00 35 50.7 20.7 V G96 – Mt. Lemmon Survey MPS 327488
2009 12 17.48369 11 30 28.10 -02 49 21.0 20.9 V 691 – Steward Observatory, Kitt Peak-Spacewatch MPS 308805
2009 12 17.50229 11 30 28.88 -02 49 26.2 20.8 V 691 – Steward Observatory, Kitt Peak-Spacewatch MPS 308805
2009 12 17.52090 11 30 29.71 -02 49 31.5 20.8 V 691 – Steward Observatory, Kitt Peak-Spacewatch MPS 308805
2009 12 20.50871 11 32 39.16 -03 03 07.5   291 – LPL/Spacewatch II MPS 308805
2009 12 20.51410 11 32 39.36 -03 03 09.0   291 – LPL/Spacewatch II MPS 308805
2009 12 20.52205 11 32 39.70 -03 03 10.8   291 – LPL/Spacewatch II MPS 308805
2010 02 14.42600 11 41 24.07 -03 18 35.6 19.7 V G96 – Mt. Lemmon Survey MPS 313653
2010 02 14.43233 11 41 23.89 -03 18 33.9 19.7 V G96 – Mt. Lemmon Survey MPS 313653
2010 02 14.43860 11 41 23.71 -03 18 32.0 19.9 V G96 – Mt. Lemmon Survey MPS 313653
2010 02 14.44498 11 41 23.56 -03 18 30.3 19.6 V G96 – Mt. Lemmon Survey MPS 313653
2010 02 17.34592 11 40 04.11 -03 04 20.2   704 – Lincoln Laboratory ETS, New Mexico MPS 407021
2010 02 17.35808 11 40 03.75 -03 04 17.4   704 – Lincoln Laboratory ETS, New Mexico MPS 407021
2010 02 17.37025 11 40 03.35 -03 04 12.8   704 – Lincoln Laboratory ETS, New Mexico MPS 407021
2010 02 17.38243 11 40 03.04 -03 04 09.4   704 – Lincoln Laboratory ETS, New Mexico MPS 407021
2010 02 17.38577 11 40 02.78 -03 04 08.6 19.5 V 691 – Steward Observatory, Kitt Peak-Spacewatch MPS 313653
2010 02 17.40083 11 40 02.41 -03 04 04.0 20.0 V 691 – Steward Observatory, Kitt Peak-Spacewatch MPS 313653
2010 02 17.41590 11 40 01.96 -03 03 59.1 19.8 V 691 – Steward Observatory, Kitt Peak-Spacewatch MPS 313653
2010 02 19.39098 11 39 02.63 -02 53 30.6   691 – Steward Observatory, Kitt Peak-Spacewatch MPS 313653
2010 02 19.40862 11 39 02.06 -02 53 24.8   691 – Steward Observatory, Kitt Peak-Spacewatch MPS 313653
2010 02 19.42626 11 39 01.47 -02 53 18.9   691 – Steward Observatory, Kitt Peak-Spacewatch MPS 313653
2010 03 10.76817 11 26 49.21 -00 42 48.9 20.4 R D29 – Purple Mountain Observatory, XuYi Station MPS 316823
2010 03 10.78354 11 26 48.52 -00 42 41.8 20.0 R D29 – Purple Mountain Observatory, XuYi Station MPS 316823
2010 03 10.79979 11 26 47.83 -00 42 34.4 20.4 R D29 – Purple Mountain Observatory, XuYi Station MPS 316823
2010 03 10.81745 11 26 47.10 -00 42 26.3 20.6 R D29 – Purple Mountain Observatory, XuYi Station MPS 316823
2010 03 10.90068 11 26 43.98 -00 41 48.6 19.1 V J75 – OAM Observatory, La Sagra MPS 316823
2010 03 10.91470 11 26 43.29 -00 41 42.7 18.9 V J75 – OAM Observatory, La Sagra MPS 316823
2010 03 10.92870 11 26 42.77 -00 41 35.2 19.2 V J75 – OAM Observatory, La Sagra MPS 316823
2010 03 12.33009 11 25 43.89 -00 30 44.8 19.7 V 703 – Catalina Sky Survey MPS 318044
2010 03 12.33764 11 25 43.53 -00 30 41.2 19.2 V 703 – Catalina Sky Survey MPS 318044
2010 03 12.34530 11 25 43.21 -00 30 37.2 19.6 V 703 – Catalina Sky Survey MPS 318044
2010 03 12.35302 11 25 42.88 -00 30 33.3 18.8 V 703 – Catalina Sky Survey MPS 318044
2010 03 13.20287 11 25 07.44 -00 23 58.7 19.4 V 691 – Steward Observatory, Kitt Peak-Spacewatch MPS 318044
2010 03 13.22048 11 25 06.68 -00 23 50.1 19.3 V 691 – Steward Observatory, Kitt Peak-Spacewatch MPS 318044
2010 03 13.23809 11 25 05.90 -00 23 42.2 19.4 V 691 – Steward Observatory, Kitt Peak-Spacewatch MPS 318044
2010 03 13.31338 11 25 02.64 -00 23 07.0 19.2 V G96 – Mt. Lemmon Survey MPS 318044
2010 03 13.32365 11 25 02.20 -00 23 02.4 19.2 V G96 – Mt. Lemmon Survey MPS 318044
2010 03 13.33394 11 25 01.74 -00 22 57.5 19.2 V G96 – Mt. Lemmon Survey MPS 318044
2010 03 13.34434 11 25 01.27 -00 22 52.8 19.1 V G96 – Mt. Lemmon Survey MPS 318044
2010 03 22.24692 11 18 56.64 +00 46 58.6 20.0   704 – Lincoln Laboratory ETS, New Mexico MPS 319430
2010 03 22.25955 11 18 56.06 +00 47 05.0 19.9   704 – Lincoln Laboratory ETS, New Mexico MPS 319430
2010 03 22.27024 11 18 55.61 +00 47 09.5 19.6   704 – Lincoln Laboratory ETS, New Mexico MPS 319430
2010 03 22.28200 11 18 55.15 +00 47 15.5 19.6   704 – Lincoln Laboratory ETS, New Mexico MPS 319430
2010 04 04.12372 11 11 28.88 +02 22 29.7 20.4 V 291 – LPL/Spacewatch II MPS 320735
2010 04 04.12905 11 11 28.72 +02 22 32.0 20.0 V 291 – LPL/Spacewatch II MPS 320735
2010 04 04.13453 11 11 28.56 +02 22 34.2 20.1 V 291 – LPL/Spacewatch II MPS 320735
2010 04 05.27675 11 10 55.74 +02 30 21.0 19.8 V 703 – Catalina Sky Survey MPS 320735
2010 04 05.28308 11 10 55.52 +02 30 23.8 18.9 V 703 – Catalina Sky Survey MPS 320735
2010 04 05.28954 11 10 55.30 +02 30 26.8 18.7 V 703 – Catalina Sky Survey MPS 320735
2010 04 05.29599 11 10 55.05 +02 30 27.1 19.3 V 703 – Catalina Sky Survey MPS 320735
2010 06 04.386490 11 20 08.01 +04 43 04.5   C51 – WISE MPS 330861
2010 06 04.651097 11 20 19.54 +04 42 28.8   C51 – WISE MPS 330861
2010 06 04.849617 11 20 28.20 +04 42 02.0   C51 – WISE MPS 330861
2010 06 04.915705 11 20 31.00 +04 41 54.2   C51 – WISE MPS 330861
2010 06 04.981920 11 20 33.96 +04 41 44.6   C51 – WISE MPS 330861
2010 06 05.048008 11 20 36.90 +04 41 36.0   C51 – WISE MPS 330861
2010 06 05.114225 11 20 39.79 +04 41 25.9   C51 – WISE MPS 330861
2010 06 05.180313 11 20 42.78 +04 41 15.7   C51 – WISE MPS 330861
2010 06 05.246402 11 20 45.64 +04 41 06.5   C51 – WISE MPS 330861
2010 06 05.246529 11 20 45.62 +04 41 06.0   C51 – WISE MPS 330861
2010 06 05.378705 11 20 51.51 +04 40 49.0   C51 – WISE MPS 330861
2010 06 05.378832 11 20 51.47 +04 40 47.7   C51 – WISE MPS 330861
2010 06 05.511009 11 20 57.35 +04 40 29.1   C51 – WISE MPS 330861
2010 06 05.511137 11 20 57.40 +04 40 29.8   C51 – WISE MPS 330861
2010 06 05.643313 11 21 03.158 +04 40 11.60   C51 – WISE MPS 903705
2011 07 03.36002 17 35 11.805 -09 47 58.55 20.3 r F51 – Pan-STARRS 1, Haleakala MPS 386541
2011 07 03.37016 17 35 11.342 -09 47 59.27 20.3 r F51 – Pan-STARRS 1, Haleakala MPS 386541
2012 08 09.51274 23 00 36.925 +00 36 26.04 20.2 i F51 – Pan-STARRS 1, Haleakala MPS 429295
2012 08 09.52520 23 00 36.525 +00 36 23.19 20.1 i F51 – Pan-STARRS 1, Haleakala MPS 429295
2012 08 10.53418 23 00 05.110 +00 32 15.21 20.4 r F51 – Pan-STARRS 1, Haleakala MPS 429939
2012 08 10.53477 23 00 05.100 +00 32 15.14 20.2 r F51 – Pan-STARRS 1, Haleakala MPS 429939
2012 08 10.54467 23 00 04.768 +00 32 12.76 20.4 r F51 – Pan-STARRS 1, Haleakala MPS 429939
